Location: Doschendorf
(50.0069°N, 11.0602°E)
Time: 19:16:56
(UTC+00:00)

NOAA 12 - Pass Details

Date: 17 November 2019
Orbit: 795 x 815 km, 98.5° (Epoch: 08 December)

Event Time Altitude Azimuth Distance (km) Brightness Sun altitude
Rises 16:51:00 0° 162° (SSE) 3,330 7.3 -12.9°
Reaches altitude 10° 16:53:19 10° 162° (SSE) 2,402 6.5 -13.3°
Maximum altitude 16:58:40 88° 72° (ENE) 824 4.1 -14.1°
Drops below altitude 10° 17:04:02 10° 346° (NNW) 2,416 6.6 -15.0°
Sets 17:06:23 0° 346° (NNW) 3,350 7.4 -15.4°
